TimeEST,TemperatureF,Dew PointF,Humidity,Sea Level PressureIn,VisibilityMPH,Wind Direction,Wind SpeedMPH,Gust SpeedMPH,PrecipitationIn,Events,Conditions,WindDirDegrees,DateUTC
12:49 AM,51.8,48.2,88,30.03,10.0,SSE,19.6,29.9,N/A,,Overcast,160,2012-11-13 05:49:00
12:53 AM,51.1,48.0,89,30.04,10.0,SSE,17.3,29.9,N/A,,Overcast,160,2012-11-13 05:53:00
1:53 AM,53.1,48.9,86,30.04,10.0,South,12.7,21.9,N/A,,Overcast,180,2012-11-13 06:53:00
2:10 AM,53.6,48.2,82,30.02,10.0,South,16.1,24.2,N/A,,Mostly Cloudy,180,2012-11-13 07:10:00
2:53 AM,54.0,50.0,86,29.99,10.0,South,18.4,32.2,N/A,,Clear,170,2012-11-13 07:53:00
3:53 AM,54.0,50.0,86,29.97,10.0,South,16.1,25.3,N/A,,Clear,170,2012-11-13 08:53:00
4:53 AM,55.0,51.1,86,29.95,10.0,South,18.4,29.9,N/A,,Mostly Cloudy,180,2012-11-13 09:53:00
5:53 AM,55.9,51.1,84,29.94,10.0,South,19.6,31.1,N/A,,Mostly Cloudy,180,2012-11-13 10:53:00
6:36 AM,53.6,51.8,94,29.98,2.5,WSW,26.5,39.1,0.06,Rain,Light Rain,240,2012-11-13 11:36:00
6:41 AM,51.8,48.2,88,29.99,2.5,West,24.2,39.1,0.07,Rain,Rain,270,2012-11-13 11:41:00
6:49 AM,50.0,46.4,87,29.99,10.0,West,21.9,38.0,0.07,Rain,Light Rain,280,2012-11-13 11:49:00
6:50 AM,48.2,46.4,93,29.99,10.0,West,21.9,38.0,0.07,Rain,Light Rain,280,2012-11-13 11:50:00
6:53 AM,48.9,46.0,90,30.01,10.0,West,20.7,32.2,0.07,Rain,Light Rain,280,2012-11-13 11:53:00
7:53 AM,46.9,44.1,90,30.03,10.0,West,13.8,23.0,0.00,Rain,Light Rain,270,2012-11-13 12:53:00
8:53 AM,45.0,42.1,90,30.06,10.0,West,9.2,20.7,0.02,Rain,Light Rain,260,2012-11-13 13:53:00
9:26 AM,44.6,42.8,93,30.05,10.0,West,8.1,-,0.01,Rain,Light Rain,270,2012-11-13 14:26:00
9:46 AM,44.6,42.8,93,30.05,7.0,West,6.9,-,0.02,Rain,Light Rain,260,2012-11-13 14:46:00
9:53 AM,44.1,42.1,93,30.08,7.0,WSW,6.9,-,0.03,Rain,Light Rain,240,2012-11-13 14:53:00
10:12 AM,44.6,41.0,87,30.05,8.0,WSW,13.8,21.9,0.01,Rain,Light Rain,250,2012-11-13 15:12:00
10:53 AM,43.0,41.0,93,30.06,10.0,West,10.4,-,0.04,Rain,Light Rain,270,2012-11-13 15:53:00
11:53 AM,39.9,37.0,89,30.08,9.0,WSW,11.5,20.7,0.04,Rain,Light Rain,240,2012-11-13 16:53:00
12:27 PM,39.2,37.4,93,30.08,10.0,SW,8.1,-,0.01,Rain,Light Rain,220,2012-11-13 17:27:00
12:53 PM,37.9,36.0,93,30.09,10.0,WSW,5.8,-,0.01,,Overcast,240,2012-11-13 17:53:00
1:53 PM,37.9,36.0,93,30.10,10.0,South,5.8,-,0.01,,Overcast,190,2012-11-13 18:53:00
2:24 PM,37.4,37.4,100,30.09,10.0,SSW,5.8,-,N/A,,Overcast,200,2012-11-13 19:24:00
2:49 PM,37.4,37.4,100,30.11,10.0,SW,11.5,17.3,N/A,,Overcast,230,2012-11-13 19:49:00
2:53 PM,39.0,36.0,89,30.12,10.0,WSW,11.5,17.3,N/A,,Overcast,240,2012-11-13 19:53:00
3:01 PM,39.2,35.6,87,30.12,10.0,WSW,9.2,18.4,N/A,,Overcast,250,2012-11-13 20:01:00
3:44 PM,37.4,33.8,87,30.14,10.0,WSW,10.4,-,N/A,,Overcast,250,2012-11-13 20:44:00
3:53 PM,37.9,34.0,86,30.17,10.0,WSW,5.8,-,N/A,,Overcast,250,2012-11-13 20:53:00
4:16 PM,37.4,33.8,87,30.16,10.0,WSW,8.1,-,N/A,,Overcast,250,2012-11-13 21:16:00
4:24 PM,37.4,33.8,87,30.16,10.0,West,11.5,-,N/A,,Overcast,260,2012-11-13 21:24:00
4:53 PM,37.0,32.0,82,30.19,10.0,West,10.4,-,N/A,,Mostly Cloudy,260,2012-11-13 21:53:00
5:53 PM,36.0,32.0,86,30.22,10.0,West,10.4,-,N/A,,Mostly Cloudy,260,2012-11-13 22:53:00
6:42 PM,35.6,32.0,87,30.23,10.0,NNW,9.2,-,N/A,,Overcast,330,2012-11-13 23:42:00
6:53 PM,34.0,32.0,92,30.26,10.0,NNW,6.9,-,N/A,,Overcast,340,2012-11-13 23:53:00
7:14 PM,33.8,30.2,87,30.26,2.5,NW,13.8,23.0,0.01,Snow,Light Snow,320,2012-11-14 00:14:00
7:17 PM,33.8,30.2,87,30.26,1.5,WNW,11.5,23.0,0.01,Snow,Light Snow,300,2012-11-14 00:17:00
7:24 PM,33.8,30.2,87,30.26,1.8,NW,9.2,-,0.01,Snow,Light Snow,310,2012-11-14 00:24:00
7:26 PM,33.8,30.2,87,30.26,3.0,NW,6.9,-,0.01,Snow,Light Snow,310,2012-11-14 00:26:00
7:41 PM,33.8,30.2,87,30.27,10.0,WNW,5.8,-,0.01,,Overcast,290,2012-11-14 00:41:00
7:53 PM,32.0,28.9,88,30.29,10.0,WNW,6.9,-,0.01,,Mostly Cloudy,300,2012-11-14 00:53:00
8:53 PM,30.9,28.0,89,30.33,10.0,NNW,6.9,-,N/A,,Clear,330,2012-11-14 01:53:00
9:53 PM,30.9,26.1,82,30.35,10.0,NW,5.8,-,N/A,,Clear,310,2012-11-14 02:53:00
10:53 PM,30.0,24.1,79,30.38,10.0,NW,9.2,-,N/A,,Clear,310,2012-11-14 03:53:00
11:53 PM,28.9,24.1,82,30.40,10.0,NW,8.1,-,N/A,,Clear,320,2012-11-14 04:53:00